Location: La Comballaz
(46.3780°N, 7.0817°E)
Time: 05:03:21
(UTC+00:00)

Envisat - Pass Details

Date: 12 December 2021
Orbit: 764 x 766 km, 98.2° (Epoch: 16 January)

Event Time Altitude Azimuth Distance (km) Brightness Sun altitude
Rises 03:53:49 0° 21° (NNE) 3,243 6.5 -32.0°
Reaches altitude 10° 03:56:19 10° 30° (NNE) 2,312 5.8 -31.6°
Maximum altitude 04:01:00 36° 96° (E) 1,205 4.4 -30.8°
Drops below altitude 10° 04:05:38 10° 163° (SSE) 2,295 5.7 -30.0°
Sets 04:08:06 0° 172° (S) 3,216 6.4 -29.6°
